[[{"header":{"parameterUnit":"m.s-1","parameterCategory":1,"la1":30.2991,"la2":30.254,"lo1":-89.0895,"lo2":-89.0444,"dx":0.0017,"dy":0.0017,"nx":28,"ny":28,"refTime":"2023-01-02T15:00:00:Z","depth":0,"parameterNumber":2,"parameterNumberName":"U-component_of_WINDS"},"data":[0,0,0,0,0,0,0,0,0,0,0,0,0,0,0,0,0,0,0,0,0,0,0,0,0,0,0,0,0,0,0,0,0,0,0,0,0,0,0,0,0,0,0,0,0,0,0,0,0,0,0,0,0,0,0,0,0,0,-3.678,-3.678,0,-3.6808,-3.6809,-3.6809,-3.6748,-3.6746,-3.6745,-3.6743,-3.6772,-3.6774,-3.6777,0,0,0,0,0,0,0,0,0,0,0,0,0,-3.6672,-3.6674,-3.678,-3.678,-3.678,-3.6808,-3.6809,-3.6809,-3.6749,-3.6746,-3.6744,-3.6742,-3.6771,-3.6774,-3.6777,0,0,0,0,0,0,0,0,0,0,0,0,0,-3.6712,-3.6675,-3.678,-3.6754,-3.6752,-3.6808,-3.6809,-3.6809,-3.6749,-3.6746,-3.6743,-3.6741,-3.677,-3.6774,-3.6777,-3.6861,0,0,-3.6789,-3.6791,0,0,0,0,0,0,0,0,-3.671,-3.6716,-3.6757,-3.6755,-3.6753,-3.6772,-3.6781,-3.6826,-3.675,-3.675,-3.6743,-3.6739,-3.6774,-3.6777,-3.6789,-3.6862,-3.6863,-3.679,-3.6792,-3.6794,-3.6795,0,0,0,0,0,0,0,-3.6707,-3.6714,-3.6791,-3.6758,-3.6755,-3.674,-3.6743,-3.679,-3.6778,-3.675,-3.6746,-3.675,-3.6772,-3.6786,-3.679,-3.6864,-3.679,-3.6793,-3.6795,-3.6797,-3.7006,-3.7009,0,0,0,0,0,0,-3.6707,-3.6712,-3.679,-3.6792,-3.6724,-3.6745,-3.6747,-3.6769,-3.6778,-3.6776,-3.6752,-3.6747,-3.678,-3.6785,-3.679,-3.6887,-3.6794,-3.6797,-3.68,-3.7002,-3.7006,-3.701,0,0,0,0,0,0,-3.6705,-3.6715,-3.6789,-3.6751,-3.6759,-3.675,-3.6774,-3.6771,-3.6784,-3.6779,-3.6777,-3.6768,-3.6778,-3.6785,-3.6843,-3.6888,-3.6799,-3.6803,-3.6999,-3.7004,-3.7008,-3.7083,0,0,0,0,0,0,-3.6703,-3.6715,-3.6746,-3.6752,-3.6761,-3.6842,-3.6777,-3.6774,-3.6791,-3.6784,-3.6793,-3.6792,-3.6776,-3.6838,-3.6847,-3.6891,-3.6806,-3.6995,-3.7001,-3.7007,-3.7076,-3.709,-3.7101,0,0,0,0,0,-3.6699,-3.6766,-3.6748,-3.6758,-3.6801,-3.6844,-3.685,-3.683,-3.6795,-3.6826,-3.6823,-3.6792,-3.6882,-3.6845,-3.6855,-3.69,-3.6992,-3.6999,-3.7006,-3.7071,-3.7087,-3.7101,0,0,0,0,0,0,-3.6765,-3.6766,-3.6746,-3.6817,-3.6831,-3.6834,-3.6873,-3.6848,-3.6872,-3.6865,-3.684,-3.6843,-3.6906,-3.6909,-3.6868,-3.6981,-3.6931,-3.694,-3.6976,-3.6992,-3.7004,-3.7001,-3.6809,0,0,0,0,0,-3.6788,-3.6823,-3.6823,-3.6885,-3.6893,-3.6882,-3.6901,-3.6885,-3.6898,-3.6904,-3.6905,-3.6919,-3.6951,-3.6972,-3.7,-3.7077,-3.7078,-3.7114,-3.7126,-3.7136,-3.7144,-3.7184,-3.72,-3.7033,-3.7033,-3.7033,0,0,-3.6835,-3.684,-3.6864,-3.6899,-3.6907,-3.6945,-3.6887,-3.6929,-3.6956,-3.691,-3.6965,-3.6967,-3.6981,-3.7049,-3.7079,-3.7054,-3.7191,-3.7145,-3.7154,-3.7156,-3.7193,-3.7209,-3.7223,-3.7038,-3.7037,-3.7037,0,0,-3.6939,-3.6948,-3.7,-3.7011,-3.7025,-3.7018,-3.7031,-3.7038,-3.7037,-3.7092,-3.7058,-3.7091,-3.7145,-3.7157,-3.717,-3.728,-3.7252,-3.7291,-3.7354,-3.7393,-3.7407,-3.7418,-3.7456,-3.747,-3.7299,-3.7299,-3.7299,0,-3.6996,-3.7051,-3.703,-3.7075,-3.7091,-3.7051,-3.7104,-3.7115,-3.7139,-3.7151,-3.7122,-3.719,-3.7197,-3.7267,-3.7294,-3.7306,-3.732,-3.7288,-3.7406,-3.7418,-3.7428,-3.7464,-3.7479,-3.7304,-3.7303,-3.7303,-3.7302,0,-3.7119,-3.7158,-3.7199,-3.7222,-3.7243,-3.7292,-3.7279,-3.7302,-3.7286,-3.7281,-3.7338,-3.7345,-3.7374,-3.739,-3.7374,-3.7458,-3.7442,-3.7411,-3.7359,-3.7449,-3.7482,-3.7496,-3.731,-3.7308,-3.7307,-3.7306,0,0,-3.7264,-3.7277,-3.7292,-3.7302,-3.7316,-3.7345,-3.7392,-3.7421,-3.7441,-3.746,-3.7498,-3.7546,-3.7517,-3.7532,-3.7517,-3.7552,-3.7638,-3.7516,-3.7516,-3.7537,-3.773,-3.7752,-3.7768,-3.762,-3.7623,-3.7625,-3.7728,0,-3.7366,-3.7447,-3.743,-3.7509,-3.7544,-3.7508,-3.7549,-3.7562,-3.756,-3.7589,-3.7586,-3.762,-3.7581,-3.7589,-3.7623,-3.7621,-3.7676,-3.7613,-3.7655,-3.7656,-3.765,-3.7786,-3.7809,-3.7906,-3.7741,-3.7744,-3.7745,0,-3.7496,-3.7519,-3.7601,-3.761,-3.7624,-3.7661,-3.7686,-3.7715,-3.7729,-3.7725,-3.7742,-3.7721,-3.7768,-3.7717,-3.7781,-3.7738,-3.7755,-3.7757,-3.776,-3.7761,-3.7705,-3.7789,-3.7936,-3.795,-3.7766,-3.7764,-3.7763,0,-3.7591,-3.7643,-3.7699,-3.7709,-3.7721,-3.7747,-3.7753,-3.7765,-3.7783,-3.7806,-3.7817,-3.7845,-3.786,-3.7882,-3.7869,-3.7834,-3.7935,-3.7883,-3.7931,-3.7932,-3.7952,-3.7951,-3.8102,-3.7967,-3.7966,-3.7966,-3.7966,0,-3.7706,-3.7758,-3.7742,-3.7776,-3.7832,-3.7814,-3.787,-3.7872,-3.7883,-3.7917,-3.7888,-3.792,-3.7902,-3.7933,-3.7923,-3.7976,-3.7984,-3.7981,-3.7977,-3.7982,-3.7983,-3.7991,-3.7983,-3.797,-3.7969,-3.7968,-3.7968,0,-3.7821,-3.7813,-3.7871,-3.7878,-3.7881,-3.7922,-3.7927,-3.7959,-3.7955,-3.7998,-3.8008,-3.8001,-3.8036,-3.8026,-3.8064,-3.8057,-3.8125,-3.8114,-3.812,-3.8116,-3.8164,-3.8159,-3.8325,-3.8345,-3.8198,-3.82,-3.8201,0,-3.7894,-3.7932,-3.7944,-3.7964,-3.7972,-3.8006,-3.8025,-3.8009,-3.803,-3.8049,-3.8079,-3.8111,-3.8136,-3.8194,-3.8193,-3.8222,-3.821,-3.8266,-3.8214,-3.8217,-3.8208,-3.8205,-3.8208,-3.8275,-3.8277,-3.8278,-3.828,0,-3.8023,-3.8018,-3.8046,-3.8073,-3.8097,-3.8117,-3.8135,-3.8154,-3.8139,-3.8164,-3.8199,-3.8219,-3.8258,-3.829,-3.8317,-3.8323,-3.8299,-3.8297,-3.8309,-3.8313,-3.8314,-3.8313,-3.8146,-3.8292,-3.8291,-3.829,-3.8289,-3.8289,-3.8118,-3.815,-3.8163,-3.8196,-3.8208,-3.8226,-3.8256,-3.8256,-3.8285,-3.8315,-3.8305,-3.8345,-3.8359,-3.8392,-3.8402,-3.8434,-3.8412,-3.843,-3.8434,-3.8439,-3.8444,-3.8312,-3.8439,-3.8438,-3.8438,-3.8438,-3.8437,0,-3.8244,-3.8251,-3.8281,-3.8308,-3.8333,-3.831,-3.8329,-3.8352,-3.8388,-3.8403,-3.8428,-3.8469,-3.8501,-3.8503,-3.8532,-3.8557,-3.8547,-3.8565,-3.8562,-3.8564,-3.8462,-3.8448,-3.8573,-3.8573,-3.8573,-3.8573,-3.8573,-3.8573,-3.8313,-3.8366,-3.8362,-3.8421,-3.8428,-3.8467,-3.848,-3.8496,-3.8508,-3.8555,-3.8581,-3.8583,-3.8592,-3.8623,-3.8651,-3.865,-3.8662,-3.8684,-3.868,-3.8585,-3.8571,-3.8558,-3.8544,-3.8687,-3.8688,-3.8778,-3.8779,-3.878]},{"header":{"parameterUnit":"m.s-1","parameterCategory":1,"la1":30.2991,"la2":30.254,"lo1":-89.0895,"lo2":-89.0444,"dx":0.0017,"dy":0.0017,"nx":28,"ny":28,"refTime":"2023-01-02T15:00:00:Z","depth":0,"parameterNumber":3,"parameterNumberName":"V-component_of_WINDS"},"data":[0,0,0,0,0,0,0,0,0,0,0,0,0,0,0,0,0,0,0,0,0,0,0,0,0,0,0,0,0,0,0,0,0,0,0,0,0,0,0,0,0,0,0,0,0,0,0,0,0,0,0,0,0,0,0,0,0,0,2.0051,2.0052,0,2.0104,2.0105,2.0105,2.0136,2.0136,2.0136,2.0136,2.0188,2.0189,2.019,0,0,0,0,0,0,0,0,0,0,0,0,0,1.9976,1.9977,2.0051,2.0052,2.0053,2.0104,2.0105,2.0105,2.0136,2.0136,2.0136,2.0136,2.0187,2.0189,2.019,0,0,0,0,0,0,0,0,0,0,0,0,0,2.0017,1.9978,2.0051,2.0074,2.0077,2.0104,2.0105,2.0106,2.0136,2.0136,2.0136,2.0136,2.0187,2.0189,2.0191,2.0199,0,0,2.0196,2.0197,0,0,0,0,0,0,0,0,2.0014,2.0019,2.007,2.0072,2.0075,2.0114,2.0097,2.0137,2.0136,2.0113,2.0136,2.0136,2.0163,2.0167,2.0176,2.0201,2.0203,2.0197,2.0198,2.0198,2.0199,0,0,0,0,0,0,0,2.0011,2.0017,2.0072,2.0071,2.0074,2.0081,2.0087,2.0105,2.0136,2.0115,2.0117,2.0123,2.0164,2.0174,2.0177,2.0204,2.0196,2.0198,2.0199,2.02,2.024,2.024,0,0,0,0,0,0,2.0005,2.0015,2.007,2.0074,2.0045,2.0083,2.0089,2.0101,2.0136,2.0142,2.0123,2.0125,2.0171,2.0175,2.0179,2.0193,2.0198,2.02,2.0201,2.024,2.024,2.024,0,0,0,0,0,0,2.0003,2.001,2.0068,2.0045,2.0053,2.0084,2.0097,2.0102,2.0112,2.0142,2.0148,2.0128,2.0171,2.0177,2.0194,2.0195,2.0201,2.0203,2.024,2.024,2.024,2.0218,0,0,0,0,0,0,2.0001,2.0009,2.0012,2.0045,2.0054,2.0082,2.0097,2.0103,2.0115,2.0118,2.0148,2.0153,2.0172,2.0191,2.0196,2.0198,2.0204,2.024,2.024,2.024,2.0219,2.0217,2.0216,0,0,0,0,0,1.9998,2.0003,2.0012,2.0019,2.0059,2.0082,2.0088,2.011,2.0115,2.0119,2.0139,2.0152,2.0194,2.0193,2.0199,2.02,2.0241,2.024,2.024,2.022,2.0218,2.0216,0,0,0,0,0,0,1.9969,2.0008,2.0018,2.0034,2.0055,2.0087,2.0093,2.0107,2.0125,2.0127,2.0153,2.0159,2.0175,2.0189,2.0187,2.0211,2.0219,2.022,2.0201,2.0199,2.0198,2.0194,2.0206,0,0,0,0,0,1.9964,1.998,2.0013,2.0024,2.0034,2.0061,2.0072,2.0088,2.011,2.0119,2.014,2.016,2.0179,2.019,2.0208,2.0221,2.0229,2.0225,2.0224,2.0222,2.0223,2.0233,2.0232,2.024,2.024,2.024,0,0,1.9954,1.9978,1.9986,2.0018,2.0036,2.0053,2.0069,2.0084,2.0097,2.0121,2.014,2.0156,2.018,2.0196,2.0204,2.0209,2.0223,2.0222,2.0221,2.0222,2.0233,2.0232,2.0231,2.024,2.024,2.024,0,0,1.9946,1.9964,1.9976,1.9994,2.0022,2.0041,2.0044,2.0075,2.0087,2.0106,2.0125,2.014,2.017,2.0187,2.02,2.02,2.0213,2.0205,2.0197,2.0206,2.0206,2.0205,2.0206,2.0206,2.0206,2.0206,2.0206,0,1.993,1.9956,1.998,1.9996,2.001,2.0034,2.0047,2.0063,2.0094,2.0103,2.0108,2.0148,2.0166,2.0188,2.0188,2.0197,2.0201,2.0202,2.0204,2.0204,2.0204,2.0205,2.0205,2.0204,2.0205,2.0205,2.0205,0,1.9936,1.9953,1.996,1.9991,2.0006,2.002,2.0047,2.0059,2.0073,2.0091,2.0111,2.0134,2.0158,2.0164,2.0178,2.0188,2.019,2.0199,2.0207,2.0202,2.0203,2.0204,2.0203,2.0203,2.0204,2.0204,0,0,1.9909,1.9956,1.9958,1.9973,2.0006,2.002,2.0035,2.006,2.007,2.0092,2.0106,2.0131,2.0141,2.0155,2.0171,2.0179,2.0179,2.0187,2.0188,2.0186,2.0193,2.0187,2.0187,2.0188,2.0188,2.0188,2.0191,0,1.9906,1.9935,1.9959,1.998,1.9997,2.0021,2.0034,2.0056,2.0074,2.0091,2.011,2.0129,2.0139,2.0148,2.0157,2.0177,2.0181,2.0177,2.0201,2.0202,2.0195,2.0188,2.018,2.0182,2.0192,2.0192,2.0192,0,1.9906,1.9928,1.9951,1.9984,1.9992,2.0004,2.0029,2.0045,2.0071,2.0083,2.01,2.0117,2.0135,2.0141,2.0166,2.0163,2.0175,2.0186,2.0187,2.019,2.0197,2.0191,2.0183,2.0183,2.0193,2.0193,2.0193,0,1.9885,1.9921,1.994,1.9952,1.9991,1.9999,2.0015,2.0041,2.0055,2.0077,2.0086,2.0109,2.0122,2.014,2.0163,2.0165,2.0186,2.0194,2.0197,2.0196,2.02,2.02,2.0194,2.0206,2.0206,2.0206,2.0206,0,1.988,1.9893,1.9932,1.9943,1.9959,1.9986,2.0001,2.0019,2.0042,2.0058,2.0079,2.0093,2.0123,2.014,2.0158,2.0177,2.0182,2.0192,2.0197,2.0191,2.019,2.0199,2.02,2.0206,2.0206,2.0206,2.0206,0,1.986,1.9886,1.9908,1.9944,1.9953,1.9964,1.9994,2.0006,2.0026,2.0045,2.0051,2.0081,2.0104,2.0128,2.0158,2.017,2.0188,2.0194,2.018,2.0182,2.0184,2.0184,2.0185,2.0187,2.0197,2.0197,2.0196,0,1.9855,1.9866,1.9904,1.9916,1.9933,1.9952,1.9967,1.9994,2.0009,2.004,2.0048,2.0072,2.0093,2.0127,2.0151,2.0174,2.0182,2.0181,2.0186,2.018,2.0183,2.0183,2.0184,2.0179,2.0179,2.0179,2.0179,0,1.9844,1.9857,1.9878,1.9904,1.9922,1.9943,1.9966,1.9975,2.0006,2.0021,2.0045,2.0061,2.0093,2.0116,2.0143,2.0159,2.0174,2.0177,2.0179,2.0173,2.0165,2.0171,2.0177,2.0177,2.0177,2.0177,2.0177,2.0177,1.9832,1.9844,1.9873,1.9896,1.9916,1.9937,1.9951,1.9973,1.9993,2.0022,2.0036,2.006,2.0086,2.0124,2.014,2.0159,2.0163,2.0166,2.0167,2.0167,2.0166,2.0162,2.0163,2.0163,2.0163,2.0163,2.0164,0,1.9824,1.9844,1.9865,1.9896,1.9915,1.9929,1.9954,1.9969,1.999,2.0013,2.0034,2.0062,2.0085,2.0112,2.0137,2.0147,2.0154,2.0153,2.0152,2.0156,2.016,2.0156,2.0146,2.0146,2.0146,2.0146,2.0146,2.0146,1.9821,1.9842,1.9859,1.989,1.991,1.9934,1.9948,1.9968,1.9987,2.0017,2.0037,2.0055,2.008,2.0108,2.013,2.0137,2.0146,2.0142,2.0151,2.0154,2.0156,2.0157,2.0154,2.0143,2.0143,2.0146,2.0146,2.0146]}]]